• In Deutschland
  • Länderverzeichnis
  • Für 7 Tage
  • Wassertemperatur
  • Satellitenkarten
  • Wetterkarte
  • Widgets
  • user-avatar
    Anmelden

    Stündliche Wetter Weinstadt-Endersbach

    Heute, 26 April, Donnerstag

    Zeit Temperatur Niederschläge Wind Luftdruck Luftfeuchtigkeit
    00:00 +11°C° 0,1 mm 3 m/S 736 mmHg 91%
    01:00 +11°C° 0,1 mm 3 m/S 736 mmHg 91%
    02:00 +10°C° 0,1 mm 3 m/S 737 mmHg 90%
    03:00 +10°C° 0,1 mm 3 m/S 737 mmHg 88%
    04:00 +9°C° 0,1 mm 3 m/S 737 mmHg 87%
    05:00 +9°C° 0 mm 3 m/S 737 mmHg 86%
    06:00 +8°C° 0 mm 4 m/S 737 mmHg 84%
    07:00 +8°C° 0 mm 4 m/S 738 mmHg 83%
    08:00 +9°C° 0 mm 5 m/S 738 mmHg 75%
    09:00 +10°C° 0 mm 6 m/S 738 mmHg 66%
    10:00 +11°C° 0 mm 6 m/S 739 mmHg 58%
    11:00 +13°C° 0 mm 6 m/S 739 mmHg 54%
    12:00 +13°C° 0 mm 6 m/S 739 mmHg 51%
    13:00 +14°C° 0 mm 6 m/S 739 mmHg 47%
    14:00 +14°C° 0 mm 5 m/S 738 mmHg 47%
    15:00 +14°C° 0 mm 5 m/S 738 mmHg 47%
    16:00 +14°C° 0 mm 4 m/S 738 mmHg 47%
    17:00 +13°C° 0 mm 4 m/S 738 mmHg 52%
    18:00 +12°C° 0 mm 3 m/S 738 mmHg 58%
    19:00 +12°C° 0 mm 2 m/S 738 mmHg 64%
    20:00 +11°C° 0 mm 1 m/S 738 mmHg 66%
    21:00 +9°C° 0 mm 1 m/S 738 mmHg 69%
    22:00 +8°C° 0 mm 1 m/S 738 mmHg 71%
    23:00 +8°C° 0 mm 1 m/S 738 mmHg 72%

    Morgen, 27 April, Freitag

    Zeit Temperatur Niederschläge Wind Luftdruck Luftfeuchtigkeit
    00:00 +8°C° 0 mm 1 m/S 738 mmHg 74%
    01:00 +8°C° 0 mm 1 m/S 738 mmHg 75%
    02:00 +7°C° 0 mm 1 m/S 737 mmHg 75%
    03:00 +7°C° 0 mm 1 m/S 736 mmHg 75%
    04:00 +7°C° 0 mm 1 m/S 736 mmHg 75%
    05:00 +8°C° 0 mm 1 m/S 735 mmHg 73%
    06:00 +8°C° 0 mm 2 m/S 735 mmHg 72%
    07:00 +9°C° 0 mm 2 m/S 734 mmHg 70%
    08:00 +12°C° 0 mm 2 m/S 734 mmHg 66%
    09:00 +13°C° 0 mm 3 m/S 733 mmHg 62%
    10:00 +16°C° 0 mm 3 m/S 733 mmHg 58%
    11:00 +18°C° 0 mm 3 m/S 732 mmHg 54%
    12:00 +19°C° 0 mm 3 m/S 732 mmHg 50%
    13:00 +21°C° 0 mm 2 m/S 732 mmHg 47%
    14:00 +21°C° 0 mm 3 m/S 731 mmHg 46%
    15:00 +22°C° 0 mm 3 m/S 731 mmHg 45%
    16:00 +22°C° 0 mm 3 m/S 731 mmHg 44%
    17:00 +20°C° 0 mm 3 m/S 731 mmHg 50%
    18:00 +19°C° 0 mm 2 m/S 731 mmHg 56%
    19:00 +17°C° 0 mm 2 m/S 731 mmHg 62%
    20:00 +16°C° 0 mm 2 m/S 732 mmHg 64%
    21:00 +14°C° 0 mm 2 m/S 732 mmHg 66%
    22:00 +13°C° 0 mm 2 m/S 733 mmHg 68%
    23:00 +12°C° 0 mm 2 m/S 733 mmHg 72%

    übermorgen, 28 April, Samstag

    Zeit Temperatur Niederschläge Wind Luftdruck Luftfeuchtigkeit
    00:00 +12°C° 0 mm 2 m/S 733 mmHg 75%
    01:00 +10°C° 0 mm 2 m/S 734 mmHg 79%
    02:00 +10°C° 0 mm 2 m/S 734 mmHg 82%
    03:00 +10°C° 0 mm 2 m/S 734 mmHg 84%
    04:00 +9°C° 0 mm 2 m/S 734 mmHg 87%
    05:00 +10°C° 0 mm 2 m/S 734 mmHg 85%
    06:00 +10°C° 0 mm 3 m/S 735 mmHg 83%
    07:00 +10°C° 0 mm 3 m/S 735 mmHg 81%
    08:00 +11°C° 0 mm 3 m/S 735 mmHg 75%
    09:00 +13°C° 0 mm 3 m/S 735 mmHg 68%
    10:00 +14°C° 0 mm 3 m/S 736 mmHg 62%
    11:00 +16°C° 0 mm 2 m/S 735 mmHg 59%
    12:00 +17°C° 0 mm 2 m/S 735 mmHg 55%
    13:00 +19°C° 0 mm 1 m/S 735 mmHg 52%
    14:00 +19°C° 0 mm 1 m/S 734 mmHg 53%
    15:00 +18°C° 0 mm 2 m/S 734 mmHg 54%
    16:00 +18°C° 0 mm 2 m/S 733 mmHg 55%
    17:00 +17°C° 0,1 mm 2 m/S 733 mmHg 61%
    18:00 +16°C° 0,1 mm 2 m/S 733 mmHg 67%
    19:00 +15°C° 0,1 mm 2 m/S 733 mmHg 73%
    20:00 +14°C° 0,1 mm 2 m/S 733 mmHg 76%
    21:00 +14°C° 0,1 mm 2 m/S 733 mmHg 80%
    22:00 +13°C° 0,1 mm 2 m/S 733 mmHg 83%
    23:00 +12°C° 0 mm 2 m/S 733 mmHg 84%

    29 April, Sonntag

    Zeit Temperatur Niederschläge Wind Luftdruck Luftfeuchtigkeit
    00:00 +11°C° 0 mm 3 m/S 732 mmHg 85%
    01:00 +10°C° 0 mm 3 m/S 732 mmHg 86%
    02:00 +10°C° 0 mm 2 m/S 731 mmHg 87%
    03:00 +10°C° 0 mm 2 m/S 731 mmHg 89%
    04:00 +9°C° 0 mm 2 m/S 730 mmHg 90%
    05:00 +10°C° 0 mm 2 m/S 730 mmHg 89%
    06:00 +12°C° 0 mm 2 m/S 730 mmHg 88%
    07:00 +13°C° 0 mm 2 m/S 729 mmHg 87%
    08:00 +15°C° 0 mm 2 m/S 729 mmHg 80%
    09:00 +18°C° 0 mm 2 m/S 729 mmHg 73%
    10:00 +20°C° 0 mm 3 m/S 729 mmHg 67%
    11:00 +22°C° 0 mm 3 m/S 728 mmHg 61%
    12:00 +24°C° 0 mm 3 m/S 728 mmHg 55%
    13:00 +26°C° 0 mm 3 m/S 727 mmHg 49%
    14:00 +26°C° 0 mm 3 m/S 726 mmHg 49%
    15:00 +26°C° 0 mm 3 m/S 726 mmHg 50%
    16:00 +26°C° 0 mm 3 m/S 725 mmHg 50%
    17:00 +24°C° 0,2 mm 3 m/S 725 mmHg 60%
    18:00 +21°C° 0,2 mm 3 m/S 725 mmHg 69%
    19:00 +19°C° 0,2 mm 3 m/S 725 mmHg 79%
    20:00 +17°C° 0,3 mm 3 m/S 725 mmHg 82%
    21:00 +14°C° 0,3 mm 3 m/S 726 mmHg 86%
    22:00 +12°C° 0,3 mm 3 m/S 727 mmHg 89%
    23:00 +12°C° 0,1 mm 3 m/S 727 mmHg 89%

    30 April, Montag

    Zeit Temperatur Niederschläge Wind Luftdruck Luftfeuchtigkeit
    00:00 +11°C° 0,1 mm 3 m/S 728 mmHg 90%
    01:00 +11°C° 0,1 mm 4 m/S 728 mmHg 91%
    02:00 +11°C° 0,1 mm 4 m/S 729 mmHg 90%
    03:00 +10°C° 0,1 mm 4 m/S 729 mmHg 89%
    04:00 +9°C° 0,1 mm 5 m/S 729 mmHg 89%
    05:00 +8°C° 0,6 mm 5 m/S 730 mmHg 90%
    06:00 +8°C° 0,6 mm 5 m/S 730 mmHg 90%
    07:00 +8°C° 0,6 mm 4 m/S 731 mmHg 91%
    08:00 +8°C° 0,2 mm 5 m/S 732 mmHg 87%
    09:00 +9°C° 0,2 mm 5 m/S 732 mmHg 82%
    10:00 +9°C° 0,2 mm 6 m/S 733 mmHg 78%
    11:00 +10°C° 0,1 mm 6 m/S 733 mmHg 72%
    12:00 +11°C° 0,1 mm 6 m/S 733 mmHg 67%
    13:00 +11°C° 0,1 mm 6 m/S 733 mmHg 61%
    14:00 +13°C° 0 mm 6 m/S 733 mmHg 57%
    15:00 +14°C° 0 mm 5 m/S 733 mmHg 53%
    16:00 +14°C° 0 mm 5 m/S 733 mmHg 50%
    17:00 +13°C° 0 mm 4 m/S 733 mmHg 55%
    18:00 +12°C° 0 mm 3 m/S 733 mmHg 60%
    19:00 +12°C° 0 mm 2 m/S 734 mmHg 66%
    20:00 +10°C° 0 mm 2 m/S 734 mmHg 68%
    21:00 +9°C° 0 mm 2 m/S 735 mmHg 71%
    22:00 +9°C° 0 mm 1 m/S 735 mmHg 74%
    23:00 +9°C° 0 mm 1 m/S 735 mmHg 75%

    1 Mai, Dienstag

    Zeit Temperatur Niederschläge Wind Luftdruck Luftfeuchtigkeit
    00:00 +8°C° 0 mm 1 m/S 735 mmHg 77%
    01:00 +8°C° 0 mm 1 m/S 735 mmHg 78%
    02:00 +8°C° 0 mm 1 m/S 735 mmHg 79%
    03:00 +8°C° 0 mm 1 m/S 735 mmHg 80%
    04:00 +8°C° 0 mm 1 m/S 735 mmHg 81%
    05:00 +9°C° 0 mm 1 m/S 735 mmHg 79%
    06:00 +10°C° 0 mm 1 m/S 736 mmHg 77%
    07:00 +10°C° 0 mm 1 m/S 736 mmHg 75%
    08:00 +12°C° 0 mm 1 m/S 736 mmHg 69%
    09:00 +14°C° 0 mm 1 m/S 736 mmHg 62%
    10:00 +16°C° 0 mm 1 m/S 735 mmHg 55%
    11:00 +16°C° 0 mm 1 m/S 735 mmHg 54%
    12:00 +18°C° 0 mm 1 m/S 735 mmHg 53%
    13:00 +17°C° 0 mm 2 m/S 734 mmHg 51%
    14:00 +17°C° 0,1 mm 2 m/S 734 mmHg 53%
    15:00 +17°C° 0,1 mm 2 m/S 734 mmHg 56%
    16:00 +17°C° 0,1 mm 3 m/S 734 mmHg 58%
    17:00 +16°C° 0 mm 3 m/S 734 mmHg 62%
    18:00 +14°C° 0 mm 2 m/S 734 mmHg 66%
    19:00 +13°C° 0 mm 2 m/S 734 mmHg 71%
    20:00 +12°C° 0 mm 2 m/S 734 mmHg 71%
    21:00 +10°C° 0 mm 2 m/S 735 mmHg 72%
    22:00 +9°C° 0 mm 2 m/S 735 mmHg 73%
    23:00 +9°C° 0,1 mm 2 m/S 735 mmHg 73%
    Mehr zeigen